Location: ?????
(32.7281°N, 34.9563°E)
Time: 12:14:36
(UTC+00:00)

Atlas Centaur 2 - Pass Details

Date: 29 October 2020
Orbit: 459 x 1309 km, 30.4° (Epoch: 26 November)

Event Time Altitude Azimuth Distance (km) Brightness Sun altitude
Rises 15:29:03 0° 257° (WSW) 4,011 8.2 -8.5°
Reaches altitude 10° 15:31:46 10° 255° (WSW) 3,136 6.8 -9.0°
Maximum altitude 15:39:50 73° 172° (S) 1,345 3.2 -10.7°
Enters shadow 15:47:16 15° 91° (E) 2,964 4.4 -12.2°
